Location: Mentone
(34.5413°N, 85.5351°W)
Time: 19:01:42
(UTC-05:00)

Vanguard 1 - Visible Passes

Search period start: 20 September 2014 00:00
Search period end: 30 September 2014 00:00
Orbit: 650 x 3838 km, 34.3° (Epoch: 07 September)

Date Brightness Start Highest point End Pass type
(mag) Time Alt. Az. Time Alt. Az. Time Alt. Az.
20 Sep 13.9 01:36:43 10° W 01:40:47 16° W 01:40:47 16° W visible
20 Sep 12.9 18:39:21 10° WSW 18:57:11 84° SSE 19:21:15 10° E visible
20 Sep 12.7 21:03:18 10° W 21:25:39 87° S 21:35:06 49° ESE visible
20 Sep 12.9 23:29:44 10° WNW 23:47:48 54° WSW 23:47:48 54° WSW visible
21 Sep 12.9 19:01:10 10° W 19:19:35 88° S 19:42:08 13° E visible
21 Sep 12.6 21:25:27 10° W 21:48:06 83° SSW 21:54:51 59° ESE visible
21 Sep 13.2 23:52:14 10° WNW 00:07:33 43° WSW 00:07:33 43° WSW visible
22 Sep 12.9 19:23:04 10° W 19:42:04 89° S 20:01:55 20° E visible
22 Sep 12.6 21:47:37 10° WNW 22:10:23 76° SSW 22:14:38 67° SSE visible
23 Sep 13.4 00:14:58 10° WNW 00:27:20 33° W 00:27:20 33° W visible
23 Sep 12.9 19:45:02 10° W 20:04:35 89° S 20:21:44 27° E visible
23 Sep 12.7 22:09:48 10° WNW 22:32:31 69° SSW 22:34:27 67° S visible
24 Sep 13.7 00:38:03 10° W 00:47:09 25° W 00:47:09 25° W visible
24 Sep 12.8 20:07:01 10° W 20:27:05 86° S 20:41:35 34° ESE visible
24 Sep 12.8 22:32:03 10° WNW 22:54:18 60° SSW 22:54:18 60° SSW visible
25 Sep 13.9 01:01:49 10° W 01:07:01 17° W 01:07:01 17° W visible
25 Sep 12.8 20:29:01 10° W 20:49:30 82° SSW 21:01:30 41° ESE visible
25 Sep 13.0 22:54:26 10° WNW 23:14:13 51° SW 23:14:13 51° SW visible
26 Sep 14.1 01:26:51 10° W 01:26:56 10° W 01:26:56 10° W visible
26 Sep 12.8 18:27:47 10° W 18:44:02 89° S 19:08:05 10° E visible
26 Sep 12.8 20:51:01 10° WNW 21:11:47 75° SSW 21:21:28 48° SE visible
26 Sep 13.2 23:17:02 10° WNW 23:34:11 41° WSW 23:34:11 41° WSW visible
27 Sep 12.8 18:49:37 10° W 19:06:26 89° S 19:28:46 14° E visible
27 Sep 12.8 21:13:04 10° WNW 21:33:56 68° SSW 21:41:29 52° SSE visible
27 Sep 13.5 23:40:02 10° W 23:54:14 31° WSW 23:54:14 31° WSW visible
28 Sep 12.8 19:11:27 10° W 19:28:49 85° SSW 19:48:51 19° ESE visible
28 Sep 12.9 21:35:11 10° WNW 21:55:55 59° SSW 22:01:36 52° S visible
29 Sep 13.8 00:03:41 10° W 00:14:21 23° WSW 00:14:21 23° WSW visible
29 Sep 12.8 19:33:19 10° W 19:51:09 80° SSW 20:09:02 24° ESE visible
29 Sep 13.0 21:57:26 10° WNW 22:17:45 51° SW 22:21:47 48° SSW visible
